Temp
69 68 65 64 61 61 60 61 60 61 60 60 59 60 60 61 63 64 64 64 64 64 64 65 66 67 67 68 70 70 69 69 71 68 68 71 73 74 76 76 75 71 71
64 62 63 64 62 61 61 60 60 60 59 59 58 58 58 59 60 61 63 64 64 64 63 64 64 65 65 66 66 67 66 68 70 65 65 62 68 73 75 77 77 74 71
62 62 62 63 62 61 61 60 59 59 59 58 58 58 59 59 59 60 59 60 61 61 62 62 63 64 64 64 65 65 64 63 67 68 64 60 61 68 75 75 76 76 72
59 61 61 62 62 63 61 59 59 58 58 57 56 55 54 53 56 56 57 57 59 59 59 59 60 62 63 63 64 66 65 65 62 66 67 66 66 60 61 72 74 75 70
59 60 60 61 62 61 60 59 58 57 57 56 55 54 53 54 55 56 55 56 57 56 55 55 58 58 61 63 63 63 63 65 63 63 63 64 64 65 61 59 65 73 74
60 60 61 60 61 62 60 59 57 57 57 55 54 53 51 52 52 52 52 52 53 52 52 51 54 55 59 61 62 63 62 63 63 63 63 62 60 60 60 60 62 64 70
60 60 60 60 60 60 59 59 58 56 56 55 53 52 51 51 51 52 52 50 49 49 51 52 53 54 55 59 61 61 60 61 60 61 62 63 62 63 62 61 60 60 66
61 60 61 60 60 60 60 59 58 56 55 54 52 52 52 52 52 52 50 50 49 52 54 54 54 54 56 59 61 60 60 60 60 60 61 61 62 62 62 60 58 56 59
60 60 61 61 61 61 60 59 58 57 55 53 52 52 52 52 52 51 49 50 51 52 53 53 53 56 58 60 60 60 60 61 61 60 60 60 62 62 62 62 61 57 52
58 59 60 60 60 61 60 58 57 56 54 53 53 52 52 52 52 52 47 48 49 50 50 50 51 52 54 57 60 60 61 60 60 61 60 60 61 61 61 60 61 60 56
58 59 60 61 61 61 59 58 56 55 54 53 52 52 51 51 52 51 50 48 48 50 49 51 52 52 52 53 53 56 59 58 59 60 59 59 61 60 61 60 59 58 57
56 57 58 58 58 58 58 57 56 54 54 53 52 51 51 51 51 51 51 51 48 49 49 50 50 50 51 51 51 52 55 55 55 57 58 58 60 58 60 60 58 58 59
54 56 56 56 56 57 57 56 55 53 52 51 50 50 50 49 50 51 51 51 50 49 49 48 47 48 49 48 49 49 49 50 50 50 51 53 55 53 56 58 58 59 59
54 54 54 56 56 56 56 55 54 52 51 49 48 48 48 48 49 50 50 50 51 50 50 50 50 49 48 48 47 47 48 50 51 50 49 50 50 51 52 55 59 59 56
54 54 54 55 56 56 56 54 52 51 50 48 47 47 47 47 47 47 48 48 49 49 48 48 49 49 49 50 46 46 47 48 48 50 50 51 50 47 49 51 55 57 57
55 55 54 54 55 55 55 54 52 51 49 46 45 47 46 46 46 46 46 46 46 47 47 46 46 46 47 44 44 44 45 47 48 47 50 52 49 52 51 51 50 50 52
55 55 55 55 55 55 55 54 54 52 48 46 45 45 45 45 45 45 44 44 44 45 45 44 44 44 44 43 43 45 46 46 45 46 45 47 52 50 50 51 51 52 51
57 57 57 57 58 57 55 55 53 51 48 47 46 46 44 44 44 43 43 43 43 42 43 43 43 42 44 41 42 44 45 43 44 45 45 46 46 47 46 48 51 51 47
57 57 58 58 58 57 57 53 52 49 48 47 48 47 45 44 43 43 42 42 41 41 41 41 41 41 42 40 42 43 43 42 41 42 43 44 44 44 45 47 48 47 43
57 56 57 56 55 57 56 51 50 50 48 48 48 48 45 44 44 43 42 42 40 40 40 37 36 36 39 41 41 42 43 40 39 40 40 42 42 43 43 43 42 45 42
55 55 54 53 54 55 53 48 49 48 49 48 48 45 44 43 43 42 41 40 40 39 38 38 41 39 39 41 40 41 40 39 38 37 37 38 40 40 41 41 40 38 39
53 53 52 51 52 52 48 46 45 49 48 45 44 43 43 42 41 41 41 39 39 37 38 38 39 41 41 39 40 39 39 39 38 37 37 38 38 38 38 38 39 39 37
52 53 51 50 51 51 48 45 46 46 44 43 43 43 43 42 41 40 39 39 38 35 37 38 37 37 39 40 39 39 38 38 38 38 37 37 37 36 37 36 37 36 35
50 51 50 49 49 52 47 45 47 46 43 42 42 44 42 42 41 39 39 38 38 38 37 37 37 37 37 39 40 39 39 38 38 37 38 36 35 35 36 37 37 37 36
49 49 48 48 49 52 51 51 48 46 42 42 43 43 42 42 41 39 39 38 40 40 38 38 38 36 36 37 38 38 37 37 37 36 37 36 36 36 36 35 35 35 35
50 49 50 50 51 52 52 52 51 47 44 43 43 43 43 42 41 40 39 39 39 38 38 38 37 37 37 37 38 37 37 36 36 34 34 34 33 32 32 32 32 32 32
MSLP
1014.74 1015.70 1016.68 1017.48 1018.05 1018.40 1018.60 1018.59 1018.72 1018.63 1018.59 1018.25 1017.90 1017.45 1017.06 1016.88 1016.35 1016.06 1015.74 1015.42 1015.12 1014.89 1014.55 1014.09 1013.69 1013.34 1012.95 1012.60 1012.21 1011.80 1011.64 1011.48 1011.55 1011.48 1011.06 1010.64 1010.40 1010.15 1009.94 1009.98 1010.14 1010.25 1010.24
1014.69 1015.49 1016.22 1016.94 1017.47 1017.82 1018.11 1018.34 1018.44 1018.53 1018.55 1018.42 1018.22 1017.98 1017.50 1016.96 1016.62 1016.09 1015.60 1015.34 1014.93 1014.59 1014.31 1013.88 1013.47 1013.12 1012.72 1012.40 1012.18 1011.93 1011.51 1011.23 1011.24 1010.96 1010.72 1009.86 1009.20 1008.81 1008.90 1008.92 1008.67 1008.83 1009.44
1014.71 1015.12 1015.81 1016.42 1017.01 1017.38 1017.71 1018.02 1018.25 1018.36 1018.37 1018.34 1018.09 1017.74 1017.26 1016.73 1016.25 1015.89 1015.74 1015.40 1015.10 1014.69 1014.13 1013.71 1013.34 1012.94 1012.62 1012.08 1011.94 1011.79 1011.52 1011.15 1010.93 1010.94 1010.79 1009.78 1008.47 1008.17 1007.67 1007.37 1007.59 1007.70 1008.13
1015.30 1015.60 1015.94 1016.30 1016.67 1016.95 1017.42 1017.86 1018.02 1018.08 1018.11 1018.14 1017.93 1017.62 1017.21 1016.67 1016.34 1016.17 1015.80 1015.40 1014.95 1014.63 1014.30 1013.76 1013.21 1012.76 1012.38 1011.87 1011.63 1011.50 1011.35 1011.10 1010.76 1010.60 1010.51 1010.23 1009.74 1008.90 1007.90 1007.28 1006.79 1007.04 1007.35
1015.63 1015.92 1016.22 1016.43 1016.56 1016.93 1017.18 1017.50 1017.68 1017.77 1017.85 1017.92 1017.83 1017.56 1017.07 1016.75 1016.41 1016.00 1015.42 1015.25 1014.82 1014.61 1014.50 1014.04 1013.12 1012.76 1012.25 1011.76 1011.44 1011.30 1010.99 1010.84 1010.61 1010.32 1009.99 1009.82 1009.70 1009.45 1008.81 1007.31 1006.83 1006.61 1006.47
1015.55 1016.05 1016.33 1016.57 1016.49 1016.67 1016.90 1017.10 1017.26 1017.39 1017.64 1017.69 1017.61 1017.41 1017.11 1016.63 1016.24 1015.76 1015.40 1015.10 1014.83 1014.54 1014.31 1014.06 1013.39 1012.91 1012.12 1011.68 1011.44 1011.18 1010.93 1010.64 1010.41 1010.10 1009.93 1009.75 1009.56 1009.03 1008.56 1007.68 1007.02 1006.58 1006.10
1015.53 1015.64 1015.88 1016.08 1016.12 1016.22 1016.50 1016.75 1016.90 1016.95 1017.26 1017.37 1017.30 1017.16 1017.02 1016.57 1016.27 1015.76 1015.38 1015.13 1014.83 1014.45 1014.03 1013.83 1013.42 1012.88 1012.28 1011.57 1011.24 1010.97 1010.78 1010.60 1010.29 1010.02 1009.76 1009.60 1009.37 1009.04 1008.63 1008.06 1007.24 1006.57 1005.98
1015.48 1015.59 1015.62 1015.72 1015.66 1015.75 1015.90 1016.08 1016.18 1016.24 1016.60 1016.79 1016.72 1016.68 1016.61 1016.35 1016.05 1015.68 1015.50 1015.12 1014.76 1014.16 1013.76 1013.47 1013.01 1012.46 1011.98 1011.37 1010.96 1010.72 1010.55 1010.32 1010.11 1009.82 1009.63 1009.39 1009.12 1008.88 1008.58 1008.10 1007.65 1006.61 1005.96
1015.36 1015.29 1015.23 1015.30 1015.31 1015.30 1015.35 1015.51 1015.67 1015.84 1016.14 1016.36 1016.35 1016.25 1016.16 1016.08 1015.73 1015.55 1015.22 1014.93 1014.55 1014.05 1013.53 1013.21 1012.75 1012.08 1011.61 1011.12 1010.68 1010.31 1010.08 1009.84 1009.57 1009.33 1009.16 1008.95 1008.58 1008.41 1008.16 1007.83 1007.52 1006.91 1005.71
1015.53 1015.34 1015.26 1015.15 1015.05 1014.98 1015.03 1015.23 1015.45 1015.61 1015.88 1016.13 1016.12 1016.03 1015.93 1015.76 1015.39 1015.02 1014.87 1014.75 1014.36 1013.94 1013.45 1013.02 1012.56 1012.06 1011.60 1011.04 1010.40 1009.93 1009.59 1009.33 1009.03 1008.79 1008.59 1008.27 1007.98 1007.76 1007.50 1007.23 1006.91 1006.56 1005.93
1015.47 1015.11 1014.84 1014.68 1014.58 1014.61 1014.71 1014.80 1015.01 1015.24 1015.45 1015.69 1015.87 1015.86 1015.65 1015.50 1015.02 1014.49 1014.39 1014.28 1013.96 1013.54 1013.18 1012.54 1012.15 1011.67 1011.28 1010.91 1010.60 1010.00 1009.24 1008.85 1008.55 1008.36 1008.02 1007.59 1007.41 1007.06 1006.74 1006.52 1006.32 1006.00 1005.64
1015.27 1014.85 1014.50 1014.19 1013.96 1013.73 1013.81 1013.99 1014.28 1014.71 1015.03 1015.39 1015.52 1015.40 1015.29 1015.06 1014.62 1014.01 1013.76 1013.67 1013.45 1013.14 1012.73 1012.33 1011.95 1011.57 1011.17 1010.83 1010.41 1009.97 1009.43 1008.88 1008.37 1007.95 1007.65 1007.17 1006.72 1006.40 1006.01 1005.75 1005.52 1005.31 1004.78
1014.83 1014.41 1014.12 1013.93 1013.79 1013.57 1013.48 1013.70 1014.05 1014.45 1014.73 1014.88 1015.01 1015.09 1014.93 1014.74 1014.36 1013.95 1013.62 1013.24 1012.92 1012.64 1012.41 1012.10 1011.74 1011.32 1010.94 1010.62 1010.32 1010.14 1009.80 1009.33 1008.83 1008.39 1007.90 1007.36 1006.85 1006.29 1005.76 1005.25 1004.76 1004.35 1004.09
1014.48 1014.04 1013.69 1013.42 1013.34 1013.32 1013.31 1013.45 1013.72 1013.99 1014.32 1014.70 1014.90 1014.83 1014.64 1014.46 1014.24 1013.99 1013.64 1013.21 1012.85 1012.49 1012.17 1011.77 1011.43 1011.16 1010.93 1010.64 1010.30 1009.90 1009.28 1008.79 1008.42 1008.10 1007.68 1007.24 1006.76 1006.20 1005.64 1004.96 1004.07 1003.67 1003.35
1013.95 1013.64 1013.27 1012.91 1012.70 1012.60 1012.63 1012.91 1013.28 1013.73 1014.05 1014.23 1014.28 1014.26 1014.24 1014.15 1013.92 1013.66 1013.48 1013.20 1012.86 1012.55 1012.34 1011.94 1011.45 1011.07 1010.71 1010.22 1010.39 1009.96 1009.31 1008.53 1007.78 1007.35 1007.10 1006.54 1006.08 1006.06 1005.49 1004.78 1003.87 1003.15 1002.56
1013.82 1013.37 1013.04 1012.69 1012.25 1012.09 1012.10 1012.32 1012.67 1013.01 1013.45 1013.74 1013.88 1013.97 1014.00 1014.00 1013.93 1013.70 1013.39 1013.14 1012.85 1012.45 1012.16 1011.77 1011.44 1011.09 1010.76 1010.59 1010.31 1009.83 1009.04 1008.31 1007.55 1006.64 1006.06 1005.87 1005.54 1004.89 1004.62 1004.11 1003.73 1003.43 1002.90
1013.59 1013.00 1012.63 1012.33 1012.09 1011.95 1011.97 1011.83 1011.96 1012.32 1012.75 1013.04 1013.18 1013.34 1013.60 1013.64 1013.46 1013.34 1013.16 1012.85 1012.56 1012.18 1011.84 1011.66 1011.39 1011.02 1010.76 1010.61 1010.17 1009.41 1008.53 1007.78 1007.19 1006.55 1005.99 1005.40 1005.03 1004.72 1004.21 1003.69 1003.19 1002.80 1002.54
1013.07 1012.56 1012.13 1011.81 1011.49 1011.47 1011.52 1011.69 1011.98 1012.19 1012.33 1012.40 1012.61 1012.74 1012.70 1012.55 1012.62 1012.84 1012.60 1012.30 1012.13 1012.01 1011.66 1011.34 1011.24 1011.05 1010.49 1010.36 1009.91 1009.12 1008.29 1007.70 1006.82 1006.40 1005.98 1005.27 1004.88 1004.74 1004.51 1003.83 1003.15 1002.84 1002.94
1012.59 1012.09 1011.62 1011.27 1011.00 1010.87 1010.94 1011.26 1011.45 1011.73 1011.88 1011.94 1011.90 1012.06 1012.34 1012.44 1012.38 1012.08 1012.08 1012.07 1011.88 1011.51 1011.49 1011.35 1011.01 1010.78 1010.54 1010.29 1009.69 1008.96 1008.18 1007.70 1007.32 1006.95 1006.52 1005.87 1005.24 1004.85 1004.18 1003.66 1003.22 1003.00 1003.28
1012.47 1011.81 1011.27 1010.85 1010.58 1010.23 1010.50 1010.84 1010.81 1011.05 1011.00 1011.11 1011.20 1011.51 1011.73 1011.76 1011.82 1011.94 1011.92 1011.67 1011.52 1011.33 1011.00 1010.94 1011.13 1011.02 1010.27 1010.04 1009.59 1009.00 1008.28 1007.95 1007.57 1007.13 1006.83 1006.44 1005.92 1005.17 1004.46 1003.81 1003.31 1003.02 1003.25
1012.05 1011.64 1011.22 1010.76 1010.34 1010.12 1010.16 1010.24 1010.34 1010.24 1010.20 1010.49 1010.72 1010.82 1011.08 1011.19 1011.21 1011.35 1011.49 1011.54 1011.49 1011.23 1010.93 1010.62 1010.28 1010.16 1009.96 1009.63 1009.36 1009.03 1008.47 1008.15 1007.90 1007.63 1007.14 1006.65 1006.45 1005.90 1005.12 1004.38 1003.98 1003.60 1003.56
1011.51 1011.27 1010.96 1010.51 1010.23 1010.12 1010.04 1009.86 1009.76 1009.48 1009.77 1009.96 1010.13 1010.30 1010.53 1010.71 1010.82 1010.92 1011.04 1011.21 1011.07 1010.97 1010.49 1010.21 1009.79 1009.70 1009.68 1009.64 1009.34 1009.05 1008.64 1008.27 1007.91 1007.77 1007.61 1007.26 1006.56 1006.38 1005.96 1005.32 1004.70 1004.37 1004.17
1011.60 1011.06 1010.68 1010.12 1009.75 1009.84 1009.88 1009.53 1008.86 1008.93 1008.91 1009.21 1009.30 1009.48 1009.72 1009.92 1010.12 1010.17 1010.24 1010.33 1010.40 1010.29 1010.08 1009.66 1009.43 1009.27 1009.23 1009.03 1008.96 1008.85 1008.78 1008.48 1008.10 1007.87 1007.63 1007.62 1007.29 1006.54 1006.27 1006.04 1005.51 1005.17 1005.04
1011.37 1010.91 1010.51 1010.08 1009.45 1009.15 1009.21 1009.08 1008.75 1008.64 1008.66 1008.04 1008.06 1008.27 1008.48 1008.68 1008.84 1009.20 1009.31 1009.30 1009.24 1009.38 1009.05 1009.03 1008.73 1008.70 1008.68 1008.59 1008.51 1008.45 1008.27 1008.17 1007.85 1007.78 1007.47 1007.37 1007.25 1007.11 1006.50 1006.06 1005.86 1005.60 1005.22
1011.07 1010.72 1010.26 1009.68 1009.06 1008.65 1008.35 1008.15 1008.03 1008.26 1008.13 1008.01 1007.90 1007.72 1007.52 1007.53 1007.55 1007.60 1007.53 1007.59 1007.64 1007.96 1008.36 1008.51 1008.39 1008.37 1008.26 1008.16 1008.28 1008.23 1008.12 1008.04 1007.79 1007.64 1007.39 1006.95 1006.73 1006.58 1006.54 1006.31 1006.30 1006.18 1006.20
1011.02 1010.41 1010.01 1009.63 1008.83 1008.35 1007.91 1007.41 1007.19 1007.38 1007.48 1007.31 1007.29 1007.32 1007.39 1007.51 1007.66 1007.78 1007.81 1007.91 1007.81 1007.88 1007.96 1008.18 1008.39 1008.40 1008.33 1008.24 1008.17 1008.12 1007.96 1007.95 1007.83 1007.45 1007.26 1007.01 1006.86 1006.82 1006.85 1006.70 1006.56 1006.71 1006.61
Wind_Speed
14 11 11 8 6 6 5 5 6 7 6 6 7 6 7 8 6 7 10 9 9 10 10 8 9 9 10 12 14 12 14 11 10 11 12 12 15 16 14 12 13 13 14
12 12 11 9 7 6 5 5 5 6 6 5 6 6 8 6 9 8 9 11 11 10 10 10 10 10 9 11 11 13 11 11 10 10 9 12 12 12 14 14 13 17 11
13 11 10 8 7 7 5 5 6 6 6 6 6 6 7 7 8 7 9 9 12 13 12 12 11 11 10 8 9 10 12 10 10 11 9 7 11 10 10 15 14 16 12
4 4 5 6 6 6 4 5 5 6 5 6 7 9 8 9 8 9 9 11 12 13 13 14 12 11 9 9 8 8 10 10 10 10 10 15 15 13 13 12 11 12 12
2 4 4 5 6 5 6 5 6 5 6 6 7 7 9 8 8 8 12 12 11 12 12 13 12 10 8 9 10 10 9 9 9 10 10 11 11 13 13 13 13 13 11
3 5 5 6 7 6 6 6 6 5 5 6 7 8 10 10 9 10 10 8 9 9 11 11 10 10 9 8 8 9 11 10 10 9 10 10 9 10 11 13 14 16 14
6 4 4 5 5 5 6 5 6 6 5 6 7 8 9 10 11 11 9 11 9 8 8 8 8 8 10 9 8 9 10 10 10 12 10 10 11 11 12 12 13 13 13
7 7 7 8 8 7 6 7 6 5 5 5 6 6 7 6 7 8 8 8 9 9 10 9 9 10 11 10 9 7 8 10 9 13 12 10 11 11 11 11 12 13 13
7 9 8 7 8 8 8 7 7 6 5 6 5 6 6 7 8 7 7 8 11 10 11 12 12 12 11 11 10 8 10 10 10 11 12 11 11 11 11 11 11 12 14
9 10 10 9 8 9 8 7 7 7 6 6 6 5 6 7 7 6 7 9 10 11 11 11 10 10 11 12 11 9 10 10 9 9 12 12 11 11 10 11 12 12 14
11 11 11 13 12 11 9 8 7 7 6 5 6 6 6 7 7 5 6 8 9 10 10 10 9 9 10 10 10 12 12 11 12 12 13 15 15 11 10 10 11 12 12
15 14 14 14 14 11 8 9 8 7 6 5 6 6 6 6 7 6 6 6 7 8 9 9 9 9 9 9 9 10 11 11 12 13 13 15 11 14 14 11 15 13 15
16 13 11 11 11 10 8 8 8 7 6 6 5 6 6 7 8 8 7 7 7 7 7 7 8 9 8 8 5 8 10 10 11 11 13 14 14 13 13 14 13 11 10
16 14 11 10 10 9 8 8 7 6 6 5 5 6 6 6 8 9 8 8 8 8 8 7 7 8 8 8 7 8 9 11 11 13 12 13 14 13 13 14 15 12 8
16 14 12 10 10 9 8 7 7 6 6 6 6 7 6 6 7 7 7 8 8 7 8 9 8 8 8 5 10 12 13 13 12 13 14 13 11 15 17 10 14 14 9
16 15 13 12 10 9 8 6 7 7 7 6 7 6 6 6 7 7 7 7 8 7 8 8 8 9 7 11 13 13 13 15 16 13 12 13 13 11 15 13 12 12 13
15 15 14 11 10 10 9 9 8 7 8 8 8 7 6 7 6 6 6 7 7 6 6 7 8 9 9 12 15 19 12 13 13 13 11 9 9 11 10 12 12 11 9
18 17 13 12 10 8 8 9 7 8 8 9 9 8 8 8 6 6 6 6 5 6 6 6 7 8 7 13 16 19 11 9 9 6 7 5 6 8 12 11 10 5 6
16 15 14 14 13 12 9 8 9 9 9 10 10 9 8 8 7 7 6 5 5 5 5 6 6 6 8 11 14 15 9 7 6 6 7 7 6 12 13 7 9 3 2
17 16 16 15 13 13 9 9 10 10 12 11 10 9 9 9 8 7 7 5 5 6 4 5 5 8 7 8 12 12 7 7 5 5 6 12 11 12 13 7 5 4 1
19 17 16 14 14 11 8 10 10 13 11 9 9 9 9 9 8 7 6 5 6 6 6 6 5 6 5 6 9 11 7 5 5 4 5 5 13 14 11 9 6 4 5
18 15 13 13 11 9 7 9 11 11 8 8 8 9 9 8 7 8 7 7 6 7 6 6 5 4 5 5 6 8 7 8 4 5 5 6 9 10 13 9 9 7 6
16 13 12 13 11 8 8 9 9 7 7 8 10 10 10 9 9 9 9 7 7 6 6 5 5 4 3 4 4 5 7 6 5 4 5 8 8 5 5 11 10 9 5
14 13 13 13 13 10 7 11 10 7 8 9 10 10 11 11 10 8 8 7 7 7 7 7 6 4 4 3 3 3 4 4 4 4 4 5 5 5 4 4 5 5 4
12 11 11 11 14 14 12 11 10 9 10 10 10 9 9 11 10 11 10 9 10 9 7 6 5 5 5 4 5 5 3 4 5 6 5 4 3 3 4 3 4 4 4
14 13 13 14 15 14 14 13 9 8 10 10 8 8 7 8 8 8 7 14 14 11 15 13 9 5 10 9 8 7 6 6 6 4 4 3 3 3 4 3 3 3 4
Wind_Direction
245 220 199 201 217 232 257 290 317 335 335 336 332 324 323 320 313 318 310 307 303 300 296 286 284 279 274 272 269 257 250 250 249 259 258 254 254 256 252 245 247 245 245
231 196 192 203 213 236 258 289 315 331 336 328 325 310 313 308 309 302 314 314 308 305 295 292 287 281 279 275 269 265 262 257 252 256 265 271 262 241 241 247 244 238 229
236 186 188 209 217 237 255 291 312 323 328 325 311 304 298 293 304 317 311 315 312 307 298 292 285 281 275 268 268 258 256 262 255 246 253 270 257 276 258 236 248 242 232
185 204 211 224 238 251 261 275 293 308 315 321 314 314 306 309 318 310 309 308 310 312 311 303 289 284 278 272 267 261 259 257 255 253 246 258 273 274 274 266 248 251 251
307 298 265 267 272 270 261 265 272 288 305 317 317 312 311 312 312 305 315 316 317 317 317 306 292 283 279 274 270 266 260 254 254 254 256 259 264 262 261 267 263 263 237
217 289 286 285 279 270 259 254 265 288 303 320 323 318 314 315 313 318 315 316 319 322 319 317 314 307 288 282 279 270 262 262 264 262 259 259 259 264 264 267 265 264 260
259 250 276 305 312 296 271 261 260 287 314 319 322 321 315 317 309 312 318 321 312 308 317 314 298 299 301 290 282 279 274 269 261 260 258 258 261 267 270 273 273 274 277
245 261 280 293 297 295 273 250 251 274 283 297 311 316 314 303 301 313 310 308 306 309 316 305 300 299 298 290 278 273 270 268 263 262 261 263 263 262 263 265 272 274 270
252 268 281 283 298 295 284 262 256 259 272 297 303 304 301 298 303 306 314 308 309 314 318 317 318 313 301 294 288 275 271 267 267 266 266 264 265 265 264 262 260 263 269
298 292 286 278 298 299 286 260 252 265 279 277 281 291 298 296 304 312 313 303 304 306 305 297 298 308 309 306 294 282 274 272 268 265 265 266 265 266 263 259 259 260 265
313 301 286 277 282 299 283 265 251 254 265 273 286 293 300 298 298 307 304 303 303 304 307 311 309 312 315 316 303 293 283 275 275 275 271 270 271 268 267 264 262 260 257
305 299 295 295 289 277 267 252 244 242 253 270 275 278 287 293 294 299 302 301 300 303 308 317 312 312 315 318 320 309 300 294 288 284 281 279 276 276 272 270 266 259 260
304 301 300 300 294 285 275 258 243 244 244 244 269 285 287 293 300 304 307 306 307 308 307 307 311 315 316 314 316 319 312 301 293 292 290 289 289 288 284 277 270 265 269
302 300 296 296 293 290 281 269 250 238 242 251 270 279 287 299 307 308 308 313 319 313 315 317 315 315 314 304 318 307 299 295 295 291 287 285 284 284 283 276 269 261 250
316 312 301 295 293 285 275 253 243 240 237 242 252 263 269 274 282 290 303 306 306 313 316 316 315 316 313 321 328 319 310 300 291 287 285 282 282 283 277 279 283 284 262
316 318 306 296 289 286 278 255 243 233 220 235 254 264 266 280 294 297 303 302 306 304 308 311 316 319 316 329 319 320 311 305 295 284 281 289 294 290 292 285 284 280 284
312 313 308 293 295 296 288 254 241 222 221 231 239 243 258 272 278 288 293 297 299 303 306 310 316 317 317 322 321 320 314 310 296 290 284 289 296 313 327 319 304 296 294
315 312 305 290 284 288 271 264 255 240 230 234 239 237 231 235 243 265 273 276 276 293 300 303 310 309 312 324 321 323 323 317 339 335 344 337 348 354 333 319 304 323 14
301 297 293 287 278 272 270 256 254 241 241 246 244 235 233 242 243 243 255 272 273 283 293 296 291 303 311 332 321 328 328 320 337 347 1 360 357 357 355 318 300 268 99
303 301 298 297 279 273 266 251 252 250 247 244 243 238 228 229 238 252 266 266 257 270 266 257 264 280 299 315 332 329 331 321 332 339 357 6 7 4 9 8 339 274 117
303 302 304 295 288 292 261 248 255 250 255 245 243 231 224 229 231 239 237 249 263 261 264 273 271 256 270 303 330 339 334 332 325 332 339 356 358 5 11 29 34 57 89
309 306 303 300 300 285 252 249 247 256 255 244 235 231 228 222 222 228 232 238 246 262 264 263 264 263 284 294 319 334 337 335 323 324 331 335 355 7 16 18 37 56 75
312 309 306 302 299 283 251 258 254 233 223 233 234 231 227 223 220 220 228 230 229 234 256 253 258 268 271 278 277 304 334 343 319 325 325 328 341 349 8 23 27 35 30
315 315 314 305 300 297 260 250 275 257 252 228 225 225 221 220 216 217 223 224 225 235 231 237 236 239 247 260 272 293 304 301 293 299 300 320 307 324 348 354 17 30 45
315 314 307 301 297 297 287 271 257 253 249 255 256 245 233 221 218 212 208 211 218 215 231 241 238 234 237 226 274 291 294 301 296 305 285 289 311 322 337 1 10 14 4
320 320 321 314 311 307 296 288 268 241 250 257 256 247 245 243 241 248 259 250 250 241 239 248 241 252 257 260 271 282 280 300 319 274 275 286 303 322 329 334 355 3 10